Location: Theydon Bois
(51.6750°N, 0.1050°E)
Time: 08:10:14
(UTC+00:00)

Envisat - Visible Passes

Search period start: 19 February 2018 00:00
Search period end: 01 March 2018 00:00
Orbit: 764 x 766 km, 98.2° (Epoch: 18 February)

Date Brightness Start Highest point End Pass type
(mag) Time Alt. Az. Time Alt. Az. Time Alt. Az.
19 Feb 3.4 18:31:20 10° SE 18:36:05 42° ENE 18:40:52 10° N visible
19 Feb 4.6 20:10:38 10° SSW 20:15:13 33° W 20:19:50 10° NNW visible
20 Feb 4.1 17:55:43 10° ESE 17:59:40 24° ENE 18:03:39 10° N visible
20 Feb 3.3 19:33:14 10° S 19:38:17 66° WSW 19:43:23 10° NNW visible
20 Feb 6.0 21:17:21 10° W 21:18:20 10° W 21:19:18 10° WNW visible
21 Feb 2.9 18:56:32 10° SSE 19:01:33 66° ENE 19:06:37 10° N visible
21 Feb 5.3 20:37:13 10° SW 20:41:03 21° W 20:44:55 10° NW visible
22 Feb 3.6 18:20:27 10° SE 18:25:01 35° ENE 18:29:37 10° N visible
22 Feb 4.2 19:59:14 10° SSW 20:04:00 41° W 20:08:49 10° NNW visible
23 Feb 3.1 19:22:03 10° SSE 19:27:08 80° WSW 19:32:16 10° NNW visible
23 Feb 5.8 21:04:38 10° WSW 21:07:01 13° W 21:09:23 10° WNW visible
24 Feb 3.1 18:45:32 10° SE 18:50:28 54° ENE 18:55:26 10° N visible
24 Feb 5.0 20:25:36 10° SSW 20:29:48 26° W 20:34:02 10° NW visible
25 Feb 3.8 18:09:37 10° ESE 18:13:58 30° ENE 18:18:21 10° N visible
25 Feb 3.9 19:47:53 10° S 19:52:48 50° W 19:57:46 10° NNW visible
26 Feb 2.9 19:10:55 10° SSE 19:16:00 85° ENE 19:21:08 10° NNW visible
26 Feb 5.7 20:52:35 10° SW 20:55:42 16° W 20:58:51 10° NW visible
27 Feb 3.3 18:34:34 10° SE 18:39:23 45° ENE 18:44:13 10° N visible
27 Feb 4.7 20:14:04 10° SSW 20:18:34 31° W 20:23:05 10° NNW visible
28 Feb 3.5 19:36:36 10° S 19:41:37 61° W 19:46:41 10° NNW visible
